Retour au catalogue

STARLINK-35122

ActifCommunicationsVLEO
NORAD 65510·PAYLOAD·🇺🇸 United States

Lancé Sep 5, 2025 depuis Cape Canaveral Space Force Station

Loading…

Prochains Passages (prochaines 24 heures)

TLE

FraisSource: CelesTrak SupGP

Époque: Sep 14, 2026, 15:26 UTC

1 65510C 25198U   26257.64354167  .00003630  00000+0  10722-3 0  2573
2 65510  53.1580 108.9530 0001140  92.1674 187.2834 15.34396339    12

Suivez STARLINK-35122 en temps réel avec AllMySat

Download on the App Store